Time,TemperatureF,DewpointF,PressureIn,WindDirection,WindDirectionDegrees,WindSpeedMPH,WindSpeedGustMPH,Humidity,HourlyPrecipIn,Conditions,Clouds,dailyrainin,SolarRadiationWatts/m^2,SoftwareType,DateUTC
2013-08-23 09:24:00,75.0,35.0,-100.00,NE,56,5.0,13.0,23,-99.99,,,0.00,359.000000,,2013-08-23 16:24:00,
2013-08-23 09:34:00,75.0,35.0,-100.00,NE,56,5.0,13.0,23,-99.99,,,0.00,359.000000,,2013-08-23 16:34:00,
2013-08-23 10:23:00,81.0,37.0,-100.00,NE,48,3.0,11.0,21,0.00,,,0.00,560.000000,,2013-08-23 17:23:00,
2013-08-23 10:34:00,81.0,37.0,-100.00,NE,48,3.0,11.0,21,0.00,,,0.00,560.000000,,2013-08-23 17:34:00,
2013-08-23 10:42:00,81.0,37.0,-100.00,NE,48,3.0,11.0,21,0.00,,,0.00,560.000000,,2013-08-23 17:42:00,
2013-08-23 11:12:00,77.0,44.0,-100.00,West,260,7.0,10.0,31,0.00,,,0.00,730.000000,,2013-08-23 18:12:00,
2013-08-23 11:22:00,77.0,44.0,-100.00,West,260,7.0,10.0,31,0.00,,,0.00,730.000000,,2013-08-23 18:22:00,
2013-08-23 11:32:00,77.0,44.0,-100.00,West,260,7.0,10.0,31,0.00,,,0.00,730.000000,,2013-08-23 18:32:00,
2013-08-23 11:42:00,77.0,44.0,-100.00,West,260,7.0,10.0,31,0.00,,,0.00,730.000000,,2013-08-23 18:42:00,
2013-08-23 12:11:00,80.0,49.0,-100.00,West,271,12.0,17.0,34,0.00,,,0.00,856.000000,,2013-08-23 19:11:00,
2013-08-23 12:22:00,80.0,49.0,-100.00,West,271,12.0,17.0,34,0.00,,,0.00,856.000000,,2013-08-23 19:22:00,
2013-08-23 12:32:00,80.0,49.0,-100.00,West,271,12.0,17.0,34,0.00,,,0.00,856.000000,,2013-08-23 19:32:00,
2013-08-23 12:42:00,80.0,49.0,-100.00,West,271,12.0,17.0,34,0.00,,,0.00,856.000000,,2013-08-23 19:42:00,
2013-08-23 13:12:00,85.0,49.0,-100.00,WNW,286,13.0,17.0,29,0.00,,,0.00,925.000000,,2013-08-23 20:12:00,
2013-08-23 13:22:00,85.0,49.0,-100.00,WNW,286,13.0,17.0,29,0.00,,,0.00,925.000000,,2013-08-23 20:22:00,
2013-08-23 13:32:00,85.0,49.0,-100.00,WNW,286,13.0,17.0,29,0.00,,,0.00,925.000000,,2013-08-23 20:32:00,
2013-08-23 13:42:00,85.0,49.0,-100.00,WNW,286,13.0,17.0,29,0.00,,,0.00,925.000000,,2013-08-23 20:42:00,
2013-08-23 14:11:00,87.0,48.0,-100.00,WNW,287,14.0,19.0,26,0.00,,,0.00,930.000000,,2013-08-23 21:11:00,
2013-08-23 14:21:00,87.0,48.0,-100.00,WNW,287,14.0,19.0,26,0.00,,,0.00,930.000000,,2013-08-23 21:21:00,
2013-08-23 14:34:00,87.0,48.0,-100.00,WNW,287,14.0,19.0,26,0.00,,,0.00,930.000000,,2013-08-23 21:34:00,
2013-08-23 14:43:00,87.0,48.0,-100.00,WNW,287,14.0,19.0,26,0.00,,,0.00,930.000000,,2013-08-23 21:43:00,
2013-08-23 15:13:00,88.0,47.0,-100.00,WNW,286,14.0,20.0,24,0.00,,,0.00,876.000000,,2013-08-23 22:13:00,
2013-08-23 15:24:00,88.0,47.0,-100.00,WNW,286,14.0,20.0,24,0.00,,,0.00,876.000000,,2013-08-23 22:24:00,
2013-08-23 15:33:00,88.0,47.0,-100.00,WNW,286,14.0,20.0,24,0.00,,,0.00,876.000000,,2013-08-23 22:33:00,
2013-08-23 15:43:00,88.0,47.0,-100.00,WNW,286,14.0,20.0,24,0.00,,,0.00,876.000000,,2013-08-23 22:43:00,
2013-08-23 16:12:00,87.0,48.0,-100.00,WNW,287,14.0,19.0,26,0.00,,,0.00,769.000000,,2013-08-23 23:12:00,
2013-08-23 16:22:00,87.0,48.0,-100.00,WNW,287,14.0,19.0,26,0.00,,,0.00,769.000000,,2013-08-23 23:22:00,
2013-08-23 16:33:00,87.0,48.0,-100.00,WNW,287,14.0,19.0,26,0.00,,,0.00,769.000000,,2013-08-23 23:33:00,
2013-08-23 16:43:00,87.0,48.0,-100.00,WNW,287,14.0,19.0,26,0.00,,,0.00,769.000000,,2013-08-23 23:43:00,
2013-08-23 17:11:00,85.0,47.0,-100.00,WNW,286,13.0,20.0,27,0.00,,,0.00,616.000000,,2013-08-24 00:11:00,
2013-08-23 17:21:00,85.0,47.0,-100.00,WNW,286,13.0,20.0,27,0.00,,,0.00,616.000000,,2013-08-24 00:21:00,
2013-08-23 17:32:00,85.0,47.0,-100.00,WNW,286,13.0,20.0,27,0.00,,,0.00,616.000000,,2013-08-24 00:32:00,
2013-08-23 17:43:00,85.0,47.0,-100.00,WNW,286,13.0,20.0,27,0.00,,,0.00,616.000000,,2013-08-24 00:43:00,
2013-08-23 18:11:00,82.0,44.0,-100.00,WNW,283,12.0,19.0,26,0.00,,,0.00,430.000000,,2013-08-24 01:11:00,
2013-08-23 18:22:00,82.0,44.0,-100.00,WNW,283,12.0,19.0,26,0.00,,,0.00,430.000000,,2013-08-24 01:22:00,
2013-08-23 18:32:00,82.0,44.0,-100.00,WNW,283,12.0,19.0,26,0.00,,,0.00,430.000000,,2013-08-24 01:32:00,
2013-08-23 18:42:00,82.0,44.0,-100.00,WNW,283,12.0,19.0,26,0.00,,,0.00,430.000000,,2013-08-24 01:42:00,
2013-08-23 19:11:00,79.0,47.0,-100.00,West,277,8.0,15.0,33,0.00,,,0.00,223.000000,,2013-08-24 02:11:00,
2013-08-23 19:22:00,79.0,47.0,-100.00,West,277,8.0,15.0,33,0.00,,,0.00,223.000000,,2013-08-24 02:22:00,
2013-08-23 19:32:00,79.0,47.0,-100.00,West,277,8.0,15.0,33,0.00,,,0.00,223.000000,,2013-08-24 02:32:00,
2013-08-23 19:42:00,79.0,47.0,-100.00,West,277,8.0,15.0,33,0.00,,,0.00,223.000000,,2013-08-24 02:42:00,
2013-08-23 20:12:00,77.0,46.0,-100.00,WSW,242,10.0,11.0,33,0.00,,,0.00,40.000000,,2013-08-24 03:12:00,
2013-08-23 20:22:00,77.0,46.0,-100.00,WSW,242,10.0,11.0,33,0.00,,,0.00,40.000000,,2013-08-24 03:22:00,
2013-08-23 20:34:00,77.0,46.0,-100.00,WSW,242,10.0,11.0,33,0.00,,,0.00,40.000000,,2013-08-24 03:34:00,
2013-08-23 20:44:00,77.0,46.0,-100.00,WSW,242,10.0,11.0,33,0.00,,,0.00,40.000000,,2013-08-24 03:44:00,
2013-08-23 21:14:00,75.0,45.0,-100.00,WSW,237,8.0,12.0,34,0.00,,,0.00,1.000000,,2013-08-24 04:14:00,
2013-08-23 21:24:00,75.0,45.0,-100.00,WSW,237,8.0,12.0,34,0.00,,,0.00,1.000000,,2013-08-24 04:24:00,
2013-08-23 21:34:00,75.0,45.0,-100.00,WSW,237,8.0,12.0,34,0.00,,,0.00,1.000000,,2013-08-24 04:34:00,
2013-08-23 21:44:00,75.0,45.0,-100.00,WSW,237,8.0,12.0,34,0.00,,,0.00,1.000000,,2013-08-24 04:44:00,